RYR4506 ESGG-LPPR

Flight info

Callsign RYR4506
Flight time N/A
Altitude 36000
Route VADIN M852 GODOG DCT ABINO DCT LOKSA DCT ATTUS DCT JUIST DCT SUSET DCT DENOX/N0453F370 N872 CIV DCT KOVIN DCT DUCRA DCT RESMI DCT DEKOD DCT DISAK DCT ARKIP DCT ARNAV DCT LMG DCT UVELI DCT OSMOB DCT VAVIX DCT BTZ DCT URUNA DCT SSN DCT VRA DCT NEA DCT ZMR L155 ADORO DCT INKIT
Aircraft B738/M-SDE2E3FGHIRWXY/LB1

Departure

Time 2026-05-05 10:11
Airport Göteborg Landvetter Airport (ESGG)

Arrival

Time N/A
Airport Francisco de Sá Carneiro Airport (LPPR)
Time Latitude Longitude Altitude Speed Heading
2026-05-05 09:49 57.66936 12.29459 513 ft 0 kts 115°
2026-05-05 10:03 57.66936 12.29458 513 ft 0 kts 115°
2026-05-05 10:03 57.66940 12.29445 513 ft 2 kts 115°
2026-05-05 10:04 57.66946 12.29419 512 ft 2 kts 115°
2026-05-05 10:04 57.66953 12.29392 512 ft 2 kts 103°
2026-05-05 10:04 57.66954 12.29365 511 ft 2 kts 81°
2026-05-05 10:04 57.66949 12.29338 510 ft 2 kts 58°
2026-05-05 10:05 57.66940 12.29317 511 ft 2 kts 38°
2026-05-05 10:05 57.66929 12.29304 511 ft 0 kts 21°
2026-05-05 10:05 57.66927 12.29303 511 ft 0 kts 22°
2026-05-05 10:08 57.66928 12.29304 510 ft 1 kts 22°
2026-05-05 10:08 57.66962 12.29332 510 ft 6 kts
2026-05-05 10:08 57.66996 12.29253 509 ft 8 kts 296°
2026-05-05 10:08 57.67028 12.29183 509 ft 7 kts
2026-05-05 10:09 57.67115 12.29252 509 ft 20 kts 26°
2026-05-05 10:09 57.67253 12.29377 510 ft 23 kts 26°
2026-05-05 10:09 57.67367 12.29478 512 ft 11 kts 15°
2026-05-05 10:09 57.67422 12.29422 511 ft 9 kts 297°
2026-05-05 10:10 57.67446 12.29336 509 ft 4 kts 296°
2026-05-05 10:10 57.67449 12.29325 509 ft 1 kts 296°
2026-05-05 10:10 57.67455 12.29300 509 ft 4 kts 291°
2026-05-05 10:10 57.67455 12.29152 509 ft 18 kts 258°
2026-05-05 10:11 57.67372 12.28970 509 ft 22 kts 206°
2026-05-05 10:11 57.67029 12.28657 507 ft 98 kts 206°
2026-05-05 10:11 57.66208 12.27912 599 ft 163 kts 207°
2026-05-05 10:11 57.65174 12.26944 1396 ft 178 kts 207°
2026-05-05 10:12 57.64045 12.25926 2264 ft 192 kts 208°
2026-05-05 10:12 57.62830 12.24838 3125 ft 197 kts 209°
2026-05-05 10:12 57.61556 12.23660 3768 ft 214 kts 209°
2026-05-05 10:12 57.60085 12.22857 4431 ft 235 kts 188°
2026-05-05 10:13 57.58408 12.22747 5129 ft 252 kts 184°
2026-05-05 10:13 57.56643 12.22676 5842 ft 266 kts 185°
2026-05-05 10:13 57.54716 12.22470 6611 ft 279 kts 188°